Time,TemperatureF,DewpointF,PressureIn,WindDirection,WindDirectionDegrees,WindSpeedMPH,WindSpeedGustMPH,Humidity,HourlyPrecipIn,Conditions,Clouds,dailyrainin,SoftwareType,DateUTC
2013-06-21 00:00:00,77.6,64.4,28.96,SSE,153,5.0,14.0,64,0.00,,,-99.99,Weather View 32 v60,2013-06-21 05:00:00,
2013-06-21 00:09:00,77.4,8.4,28.96,SSE,150,9.0,14.0,7,0.00,,,-99.99,Weather View 32 v60,2013-06-21 05:09:00,
2013-06-21 00:15:00,77.4,64.2,28.96,SSE,161,7.0,14.0,64,0.00,,,-99.99,Weather View 32 v60,2013-06-21 05:15:00,
2013-06-21 00:20:00,77.3,64.1,28.96,SSE,150,5.0,15.0,64,0.00,,,-99.99,Weather View 32 v60,2013-06-21 05:20:00,
2013-06-21 00:30:00,77.1,64.4,28.96,South,174,6.0,15.0,65,0.00,,,-99.99,Weather View 32 v60,2013-06-21 05:30:00,
2013-06-21 00:40:00,77.0,64.3,28.96,SSE,159,6.0,15.0,65,0.00,,,-99.99,Weather View 32 v60,2013-06-21 05:40:00,
2013-06-21 00:45:00,76.9,64.6,28.95,SW,224,7.0,15.0,66,0.00,,,-99.99,Weather View 32 v60,2013-06-21 05:45:00,
2013-06-21 00:55:00,76.7,64.4,28.95,South,176,6.0,15.0,66,0.00,,,-99.99,Weather View 32 v60,2013-06-21 05:55:00,
2013-06-21 01:05:00,76.6,64.8,28.95,SSW,201,7.0,15.0,67,0.00,,,-99.99,Weather View 32 v60,2013-06-21 06:05:00,
2013-06-21 01:10:00,76.6,64.8,28.95,SSW,197,11.0,15.0,67,0.00,,,-99.99,Weather View 32 v60,2013-06-21 06:10:00,
2013-06-21 01:15:00,76.5,64.7,28.95,SSE,163,4.0,15.0,67,0.00,,,-99.99,Weather View 32 v60,2013-06-21 06:15:00,
2013-06-21 01:25:00,76.4,64.6,28.95,SSE,162,6.0,14.0,67,0.00,,,-99.99,Weather View 32 v60,2013-06-21 06:25:00,
2013-06-21 01:35:00,76.3,64.5,28.94,SSW,192,7.0,14.0,67,0.00,,,-99.99,Weather View 32 v60,2013-06-21 06:35:00,
2013-06-21 01:40:00,76.2,13.1,28.94,South,191,7.0,15.0,9,0.00,,,-99.99,Weather View 32 v60,2013-06-21 06:40:00,
2013-06-21 01:57:00,76.1,64.7,28.93,SW,215,12.0,16.0,68,0.00,,,-99.99,Weather View 32 v60,2013-06-21 06:57:00,
2013-06-21 02:05:00,76.1,64.7,28.93,South,189,6.0,16.0,68,0.00,,,-99.99,Weather View 32 v60,2013-06-21 07:05:00,
2013-06-21 02:10:00,76.1,64.7,28.92,South,191,4.0,16.0,68,0.00,,,-99.99,Weather View 32 v60,2013-06-21 07:10:00,
2013-06-21 02:20:00,76.1,64.7,28.92,SSW,206,5.0,16.0,68,0.00,,,-99.99,Weather View 32 v60,2013-06-21 07:20:00,
2013-06-21 02:30:00,76.0,4.0,28.92,SSE,164,5.0,16.0,6,0.00,,,-99.99,Weather View 32 v60,2013-06-21 07:30:00,
2013-06-21 02:40:00,76.0,64.6,28.92,SSW,200,5.0,16.0,68,0.00,,,-99.99,Weather View 32 v60,2013-06-21 07:40:00,
2013-06-21 02:50:00,76.0,64.6,28.92,SSW,193,8.0,14.0,68,0.00,,,-99.99,Weather View 32 v60,2013-06-21 07:50:00,
2013-06-21 02:58:00,76.1,65.2,28.91,SSE,161,2.0,14.0,69,0.00,,,-99.99,Weather View 32 v60,2013-06-21 07:58:00,
2013-06-21 03:05:00,76.2,65.2,28.91,SSE,160,3.0,16.0,69,0.00,,,-99.99,Weather View 32 v60,2013-06-21 08:05:00,
2013-06-21 03:15:00,76.2,65.2,28.90,SSW,192,9.0,16.0,69,0.00,,,-99.99,Weather View 32 v60,2013-06-21 08:15:00,
2013-06-21 03:25:00,76.0,65.1,28.89,South,191,8.0,16.0,69,0.00,,,-99.99,Weather View 32 v60,2013-06-21 08:25:00,
2013-06-21 03:30:00,76.1,65.2,28.89,SSW,193,6.0,16.0,69,0.00,,,-99.99,Weather View 32 v60,2013-06-21 08:30:00,
2013-06-21 03:40:00,76.0,65.5,28.89,South,182,9.0,16.0,70,0.00,,,-99.99,Weather View 32 v60,2013-06-21 08:40:00,
2013-06-21 03:50:00,76.1,65.6,28.89,SSW,204,10.0,17.0,70,0.00,,,-99.99,Weather View 32 v60,2013-06-21 08:50:00,
2013-06-21 03:58:00,76.1,65.6,28.89,South,184,7.0,17.0,70,0.00,,,-99.99,Weather View 32 v60,2013-06-21 08:58:00,
2013-06-21 04:05:00,76.3,65.8,28.89,SSW,200,12.0,19.0,70,0.00,,,-99.99,Weather View 32 v60,2013-06-21 09:05:00,
2013-06-21 04:10:00,76.3,65.8,28.89,South,187,8.0,19.0,70,0.00,,,-99.99,Weather View 32 v60,2013-06-21 09:10:00,
2013-06-21 04:20:00,76.3,65.8,28.91,SSW,199,14.0,20.0,70,0.00,,,-99.99,Weather View 32 v60,2013-06-21 09:20:00,
2013-06-21 04:30:00,76.5,65.9,28.92,SSW,203,7.0,20.0,70,0.00,,,-99.99,Weather View 32 v60,2013-06-21 09:30:00,
2013-06-21 04:35:00,76.5,65.9,28.92,South,185,9.0,20.0,70,0.00,,,-99.99,Weather View 32 v60,2013-06-21 09:35:00,
2013-06-21 04:45:00,76.6,66.5,28.93,SSW,204,7.0,20.0,71,0.00,,,-99.99,Weather View 32 v60,2013-06-21 09:45:00,
2013-06-21 04:54:00,76.7,66.1,28.93,SSW,202,10.0,20.0,70,0.00,,,-99.99,Weather View 32 v60,2013-06-21 09:54:00,
2013-06-21 04:59:00,76.6,66.0,28.92,SSW,204,4.0,20.0,70,0.00,,,-99.99,Weather View 32 v60,2013-06-21 09:59:00,
2013-06-21 05:05:00,76.7,66.6,28.93,SSW,200,8.0,20.0,71,0.00,,,-99.99,Weather View 32 v60,2013-06-21 10:05:00,
2013-06-21 05:15:00,76.7,66.6,28.92,SSW,203,10.0,20.0,71,0.00,,,-99.99,Weather View 32 v60,2013-06-21 10:15:00,
2013-06-21 05:20:00,76.6,66.5,28.93,SSW,198,10.0,20.0,71,0.00,,,-99.99,Weather View 32 v60,2013-06-21 10:20:00,
2013-06-21 05:30:00,76.5,66.4,28.92,SSW,203,9.0,19.0,71,0.00,,,-99.99,Weather View 32 v60,2013-06-21 10:30:00,
2013-06-21 05:40:00,76.3,66.6,28.92,SSW,202,10.0,19.0,72,0.00,,,-99.99,Weather View 32 v60,2013-06-21 10:40:00,
2013-06-21 05:50:00,76.1,66.4,28.93,SW,215,6.0,19.0,72,0.00,,,-99.99,Weather View 32 v60,2013-06-21 10:50:00,
2013-06-21 05:55:00,76.0,66.3,28.93,South,172,11.0,19.0,72,0.00,,,-99.99,Weather View 32 v60,2013-06-21 10:55:00,
2013-06-21 06:00:00,76.0,66.3,28.93,SSW,194,9.0,19.0,72,0.00,,,-99.99,Weather View 32 v60,2013-06-21 11:00:00,
2013-06-21 06:10:00,75.8,66.5,28.92,South,190,7.0,19.0,73,0.00,,,-99.99,Weather View 32 v60,2013-06-21 11:10:00,
2013-06-21 06:20:00,75.8,66.5,28.92,SSW,205,9.0,18.0,73,0.00,,,-99.99,Weather View 32 v60,2013-06-21 11:20:00,
2013-06-21 06:25:00,75.7,66.4,28.92,SW,216,9.0,18.0,73,0.00,,,-99.99,Weather View 32 v60,2013-06-21 11:25:00,
2013-06-21 06:35:00,75.5,66.6,28.92,SSW,208,11.0,18.0,74,0.00,,,-99.99,Weather View 32 v60,2013-06-21 11:35:00,
2013-06-21 06:40:00,75.6,66.7,28.92,SSW,212,10.0,18.0,74,0.00,,,-99.99,Weather View 32 v60,2013-06-21 11:40:00,
2013-06-21 06:50:00,75.6,66.7,28.92,SSW,206,15.0,21.0,74,0.00,,,-99.99,Weather View 32 v60,2013-06-21 11:50:00,
2013-06-21 06:55:00,75.7,66.8,28.92,SSW,202,15.0,21.0,74,0.00,,,-99.99,Weather View 32 v60,2013-06-21 11:55:00,
2013-06-21 07:00:00,75.7,66.8,28.92,South,185,13.0,21.0,74,0.00,,,-99.99,Weather View 32 v60,2013-06-21 12:00:00,
2013-06-21 07:10:00,75.7,66.8,28.92,SSW,202,11.0,21.0,74,0.00,,,-99.99,Weather View 32 v60,2013-06-21 12:10:00,
2013-06-21 07:20:00,75.8,67.3,28.91,South,190,8.0,21.0,75,0.00,,,-99.99,Weather View 32 v60,2013-06-21 12:20:00,
2013-06-21 07:30:00,76.0,67.5,28.91,SSW,203,18.0,23.0,75,0.00,,,-99.99,Weather View 32 v60,2013-06-21 12:30:00,
2013-06-21 07:35:00,76.1,67.2,28.91,SW,214,11.0,23.0,74,0.00,,,-99.99,Weather View 32 v60,2013-06-21 12:35:00,
2013-06-21 07:45:00,76.3,67.4,28.91,SW,214,10.0,23.0,74,0.00,,,-99.99,Weather View 32 v60,2013-06-21 12:45:00,
2013-06-21 07:50:00,76.4,67.5,28.90,SSW,196,14.0,23.0,74,0.00,,,-99.99,Weather View 32 v60,2013-06-21 12:50:00,
2013-06-21 08:00:00,76.6,15.8,28.91,SSW,212,11.0,23.0,10,0.00,,,-99.99,Weather View 32 v60,2013-06-21 13:00:00,
2013-06-21 08:10:00,76.8,67.8,28.90,SW,223,11.0,23.0,74,0.00,,,-99.99,Weather View 32 v60,2013-06-21 13:10:00,
2013-06-21 08:15:00,76.9,67.9,28.90,SSW,207,10.0,23.0,74,0.00,,,-99.99,Weather View 32 v60,2013-06-21 13:15:00,
2013-06-21 08:25:00,77.3,67.9,28.90,SW,214,7.0,23.0,73,0.00,,,-99.99,Weather View 32 v60,2013-06-21 13:25:00,
2013-06-21 08:30:00,77.4,68.0,28.91,SW,217,6.0,21.0,73,0.00,,,-99.99,Weather View 32 v60,2013-06-21 13:30:00,
2013-06-21 08:35:00,77.6,68.2,28.91,SW,220,16.0,21.0,73,0.00,,,-99.99,Weather View 32 v60,2013-06-21 13:35:00,
2013-06-21 08:45:00,78.0,68.2,28.91,SSW,210,7.0,21.0,72,0.00,,,-99.99,Weather View 32 v60,2013-06-21 13:45:00,
2013-06-21 08:55:00,78.5,68.3,28.91,SW,221,7.0,21.0,71,0.00,,,-99.99,Weather View 32 v60,2013-06-21 13:55:00,
2013-06-21 09:00:00,78.7,68.5,28.91,SW,215,6.0,21.0,71,0.00,,,-99.99,Weather View 32 v60,2013-06-21 14:00:00,
2013-06-21 09:10:00,79.2,68.5,28.91,SW,223,12.0,21.0,70,0.00,,,-99.99,Weather View 32 v60,2013-06-21 14:10:00,
2013-06-21 09:15:00,79.4,68.7,28.91,SSW,207,7.0,21.0,70,0.00,,,-99.99,Weather View 32 v60,2013-06-21 14:15:00,
2013-06-21 09:25:00,79.9,68.3,28.92,SSW,206,11.0,21.0,68,0.00,,,-99.99,Weather View 32 v60,2013-06-21 14:25:00,
2013-06-21 09:35:00,80.6,69.0,28.93,SW,215,6.0,21.0,68,0.00,,,-99.99,Weather View 32 v60,2013-06-21 14:35:00,
2013-06-21 09:40:00,80.7,69.1,28.93,SSW,204,6.0,21.0,68,0.00,,,-99.99,Weather View 32 v60,2013-06-21 14:40:00,
2013-06-21 09:50:00,81.0,69.0,28.94,SSW,205,6.0,21.0,67,0.00,,,-99.99,Weather View 32 v60,2013-06-21 14:50:00,
2013-06-21 10:00:00,81.0,69.0,28.95,SSW,212,5.0,19.0,67,0.00,,,-99.99,Weather View 32 v60,2013-06-21 15:00:00,
2013-06-21 10:10:00,81.1,69.1,28.96,SSW,209,6.0,19.0,67,0.00,,,-99.99,Weather View 32 v60,2013-06-21 15:10:00,
2013-06-21 10:20:00,80.9,68.4,28.97,SW,230,4.0,17.0,66,0.00,,,-99.99,Weather View 32 v60,2013-06-21 15:20:00,
2013-06-21 10:25:00,81.0,69.0,28.98,SW,230,0.0,17.0,67,0.00,,,-99.99,Weather View 32 v60,2013-06-21 15:25:00,
2013-06-21 10:35:00,81.9,68.9,28.99,ENE,71,2.0,17.0,65,0.00,,,-99.99,Weather View 32 v60,2013-06-21 15:35:00,
2013-06-21 10:40:00,81.7,-6.7,28.99,ESE,102,1.0,17.0,3,0.00,,,-99.99,Weather View 32 v60,2013-06-21 15:40:00,
2013-06-21 10:50:00,81.4,68.9,28.99,East,80,4.0,16.0,66,0.00,,,-99.99,Weather View 32 v60,2013-06-21 15:50:00,
2013-06-21 11:00:00,81.1,69.1,28.99,East,96,3.0,12.0,67,0.00,,,-99.99,Weather View 32 v60,2013-06-21 16:00:00,
2013-06-21 11:10:00,81.3,69.2,28.99,East,93,6.0,9.0,67,0.00,,,-99.99,Weather View 32 v60,2013-06-21 16:10:00,
2013-06-21 11:15:00,81.3,69.2,29.00,East,97,4.0,9.0,67,0.00,,,-99.99,Weather View 32 v60,2013-06-21 16:15:00,
2013-06-21 11:25:00,81.3,69.2,28.99,East,84,4.0,9.0,67,0.00,,,-99.99,Weather View 32 v60,2013-06-21 16:25:00,
2013-06-21 11:35:00,80.9,69.3,28.99,SE,142,6.0,9.0,68,0.00,,,-99.99,Weather View 32 v60,2013-06-21 16:35:00,
2013-06-21 11:45:00,80.4,69.7,28.98,SSE,150,7.0,10.0,70,0.00,,,-99.99,Weather View 32 v60,2013-06-21 16:45:00,
2013-06-21 11:55:00,78.7,70.1,28.97,SE,132,7.0,11.0,75,0.01,,,-99.99,Weather View 32 v60,2013-06-21 16:55:00,
2013-06-21 12:05:00,77.5,70.1,28.96,SE,134,8.0,12.0,78,0.02,,,-99.99,Weather View 32 v60,2013-06-21 17:05:00,
2013-06-21 12:10:00,77.3,70.2,28.96,ESE,113,2.0,12.0,79,0.02,,,-99.99,Weather View 32 v60,2013-06-21 17:10:00,
2013-06-21 12:20:00,77.1,70.4,28.96,ESE,118,4.0,12.0,80,0.02,,,-99.99,Weather View 32 v60,2013-06-21 17:20:00,
2013-06-21 12:25:00,76.8,69.8,28.96,ESE,121,9.0,16.0,79,0.02,,,-99.99,Weather View 32 v60,2013-06-21 17:25:00,
2013-06-21 12:30:00,76.4,0.3,28.96,SE,134,8.0,16.0,5,0.02,,,-99.99,Weather View 32 v60,2013-06-21 17:30:00,
2013-06-21 12:45:00,77.6,69.0,28.97,ESE,123,5.0,16.0,75,0.02,,,-99.99,Weather View 32 v60,2013-06-21 17:45:00,
2013-06-21 12:50:00,77.8,69.2,28.97,SE,130,9.0,19.0,75,0.01,,,-99.99,Weather View 32 v60,2013-06-21 17:50:00,
2013-06-21 12:55:00,78.2,69.2,28.98,ESE,108,7.0,19.0,74,0.01,,,-99.99,Weather View 32 v60,2013-06-21 17:55:00,
2013-06-21 13:00:00,78.7,68.9,28.99,ESE,119,6.0,19.0,72,0.01,,,-99.99,Weather View 32 v60,2013-06-21 18:00:00,
2013-06-21 13:05:00,78.6,68.8,28.99,SE,145,3.0,19.0,72,0.00,,,-99.99,Weather View 32 v60,2013-06-21 18:05:00,
2013-06-21 13:10:00,78.4,68.2,28.99,ESE,116,7.0,19.0,71,0.01,,,-99.99,Weather View 32 v60,2013-06-21 18:10:00,
2013-06-21 13:20:00,79.0,68.8,28.98,ESE,104,8.0,19.0,71,0.01,,,-99.99,Weather View 32 v60,2013-06-21 18:20:00,
2013-06-21 13:25:00,79.3,69.0,28.98,SE,139,6.0,19.0,71,0.01,,,-99.99,Weather View 32 v60,2013-06-21 18:25:00,
2013-06-21 13:30:00,80.1,69.4,28.98,SE,132,7.0,19.0,70,0.01,,,-99.99,Weather View 32 v60,2013-06-21 18:30:00,
2013-06-21 13:35:00,80.3,69.2,28.98,ESE,121,7.0,19.0,69,0.01,,,-99.99,Weather View 32 v60,2013-06-21 18:35:00,
2013-06-21 13:40:00,80.2,68.6,28.98,ESE,115,4.0,19.0,68,0.01,,,-99.99,Weather View 32 v60,2013-06-21 18:40:00,
2013-06-21 13:50:00,80.5,68.9,28.97,SE,143,8.0,19.0,68,0.01,,,-99.99,Weather View 32 v60,2013-06-21 18:50:00,
2013-06-21 14:00:00,80.6,69.0,28.98,SE,128,9.0,15.0,68,0.01,,,-99.99,Weather View 32 v60,2013-06-21 19:00:00,
2013-06-21 14:05:00,80.5,68.9,28.98,SE,146,5.0,15.0,68,0.01,,,-99.99,Weather View 32 v60,2013-06-21 19:05:00,
2013-06-21 14:09:00,80.4,68.8,28.98,SE,126,8.0,16.0,68,0.00,,,-99.99,Weather View 32 v60,2013-06-21 19:09:00,
2013-06-21 14:15:00,80.1,68.5,28.99,ESE,111,4.0,16.0,68,0.00,,,-99.99,Weather View 32 v60,2013-06-21 19:15:00,
2013-06-21 14:25:00,79.7,68.6,28.98,SE,137,10.0,16.0,69,0.00,,,-99.99,Weather View 32 v60,2013-06-21 19:25:00,
2013-06-21 14:30:00,78.7,68.5,28.96,SE,129,6.0,16.0,71,0.00,,,-99.99,Weather View 32 v60,2013-06-21 19:30:00,
2013-06-21 14:35:00,78.0,67.8,28.96,SSE,148,7.0,16.0,71,0.00,,,-99.99,Weather View 32 v60,2013-06-21 19:35:00,
2013-06-21 14:40:00,77.9,68.1,28.96,SE,132,4.0,16.0,72,0.00,,,-99.99,Weather View 32 v60,2013-06-21 19:40:00,
2013-06-21 14:50:00,77.6,67.8,28.95,SSE,152,10.0,16.0,72,0.00,,,-99.99,Weather View 32 v60,2013-06-21 19:50:00,
2013-06-21 14:59:00,77.0,67.6,28.93,ESE,116,6.0,16.0,73,0.00,,,-99.99,Weather View 32 v60,2013-06-21 19:59:00,
2013-06-21 15:05:00,76.7,67.8,28.92,SSE,155,8.0,16.0,74,0.00,,,-99.99,Weather View 32 v60,2013-06-21 20:05:00,
2013-06-21 15:15:00,76.4,67.5,28.89,SSE,147,9.0,18.0,74,0.00,,,-99.99,Weather View 32 v60,2013-06-21 20:15:00,
2013-06-21 15:20:00,76.3,67.8,28.89,SSE,150,6.0,20.0,75,0.00,,,-99.99,Weather View 32 v60,2013-06-21 20:20:00,
2013-06-21 15:25:00,76.4,67.9,28.89,SE,143,10.0,20.0,75,0.00,,,-99.99,Weather View 32 v60,2013-06-21 20:25:00,
2013-06-21 15:30:00,76.5,68.0,28.89,SSE,167,6.0,20.0,75,0.00,,,-99.99,Weather View 32 v60,2013-06-21 20:30:00,
2013-06-21 15:40:00,77.2,68.6,28.89,SSE,150,7.0,20.0,75,0.00,,,-99.99,Weather View 32 v60,2013-06-21 20:40:00,
2013-06-21 15:50:00,78.5,69.1,28.90,South,174,2.0,20.0,73,0.00,,,-99.99,Weather View 32 v60,2013-06-21 20:50:00,
2013-06-21 16:00:00,79.7,69.8,28.89,South,173,2.0,20.0,72,0.00,,,-99.99,Weather View 32 v60,2013-06-21 21:00:00,
2013-06-21 16:05:00,80.6,70.3,28.88,South,191,4.0,20.0,71,0.00,,,-99.99,Weather View 32 v60,2013-06-21 21:05:00,
2013-06-21 16:10:00,81.3,70.5,28.88,SSW,201,9.0,20.0,70,0.00,,,-99.99,Weather View 32 v60,2013-06-21 21:10:00,
2013-06-21 16:20:00,83.1,71.8,28.88,South,184,6.0,20.0,69,0.00,,,-99.99,Weather View 32 v60,2013-06-21 21:20:00,
2013-06-21 16:25:00,84.0,72.3,28.88,SSW,198,12.0,20.0,68,0.00,,,-99.99,Weather View 32 v60,2013-06-21 21:25:00,
2013-06-21 16:35:00,85.1,24.6,28.88,SSW,192,9.0,20.0,11,0.00,,,-99.99,Weather View 32 v60,2013-06-21 21:35:00,
2013-06-21 16:40:00,85.7,73.4,28.88,South,189,7.0,20.0,67,0.00,,,-99.99,Weather View 32 v60,2013-06-21 21:40:00,
2013-06-21 16:45:00,86.4,73.6,28.88,SSW,197,14.0,20.0,66,0.00,,,-99.99,Weather View 32 v60,2013-06-21 21:45:00,
2013-06-21 16:55:00,87.9,73.7,28.87,SSW,200,17.0,20.0,63,0.00,,,-99.99,Weather View 32 v60,2013-06-21 21:55:00,
2013-06-21 17:05:00,88.4,19.5,28.88,SSW,211,18.0,25.0,8,0.00,,,-99.99,Weather View 32 v60,2013-06-21 22:05:00,
2013-06-21 17:15:00,88.8,72.6,28.88,SSW,199,10.0,25.0,59,0.00,,,-99.99,Weather View 32 v60,2013-06-21 22:15:00,
2013-06-21 17:20:00,88.9,72.6,28.87,SSW,194,5.0,25.0,59,0.00,,,-99.99,Weather View 32 v60,2013-06-21 22:20:00,
2013-06-21 17:30:00,88.7,72.5,28.87,SSW,197,18.0,25.0,59,0.00,,,-99.99,Weather View 32 v60,2013-06-21 22:30:00,
2013-06-21 17:40:00,88.8,72.0,28.87,SSW,213,9.0,25.0,58,0.00,,,-99.99,Weather View 32 v60,2013-06-21 22:40:00,
2013-06-21 17:49:00,88.9,72.1,28.87,South,189,16.0,25.0,58,0.00,,,-99.99,Weather View 32 v60,2013-06-21 22:49:00,
2013-06-21 17:55:00,88.8,72.0,28.87,SSW,200,9.0,25.0,58,0.00,,,-99.99,Weather View 32 v60,2013-06-21 22:55:00,
2013-06-21 18:05:00,88.6,71.9,28.88,SW,216,14.0,25.0,58,0.00,,,-99.99,Weather View 32 v60,2013-06-21 23:05:00,
2013-06-21 18:10:00,88.6,71.9,28.88,SSW,212,8.0,25.0,58,0.00,,,-99.99,Weather View 32 v60,2013-06-21 23:10:00,
2013-06-21 18:20:00,88.4,71.7,28.88,SSW,211,8.0,25.0,58,0.00,,,-99.99,Weather View 32 v60,2013-06-21 23:20:00,
2013-06-21 18:25:00,88.3,71.6,28.88,SW,221,8.0,25.0,58,0.00,,,-99.99,Weather View 32 v60,2013-06-21 23:25:00,
2013-06-21 18:34:00,88.3,72.1,28.89,SSW,200,12.0,25.0,59,0.00,,,-99.99,Weather View 32 v60,2013-06-21 23:34:00,
2013-06-21 18:40:00,88.3,72.1,28.89,SSW,198,7.0,25.0,59,0.00,,,-99.99,Weather View 32 v60,2013-06-21 23:40:00,
2013-06-21 18:50:00,88.2,72.5,28.89,SSW,202,11.0,25.0,60,0.00,,,-99.99,Weather View 32 v60,2013-06-21 23:50:00,
2013-06-21 19:00:00,88.2,71.5,28.89,SSW,192,7.0,20.0,58,0.00,,,-99.99,Weather View 32 v60,2013-06-22 00:00:00,
2013-06-21 19:05:00,88.1,70.9,28.89,South,186,8.0,20.0,57,0.00,,,-99.99,Weather View 32 v60,2013-06-22 00:05:00,
2013-06-21 19:10:00,88.0,71.3,28.89,SSW,213,7.0,20.0,58,0.00,,,-99.99,Weather View 32 v60,2013-06-22 00:10:00,
2013-06-21 19:25:00,87.8,71.6,28.90,SSW,208,5.0,20.0,59,0.00,,,-99.99,Weather View 32 v60,2013-06-22 00:25:00,
2013-06-21 19:34:00,87.8,71.6,28.90,South,185,4.0,20.0,59,0.00,,,-99.99,Weather View 32 v60,2013-06-22 00:34:00,
2013-06-21 19:40:00,87.8,28.7,28.90,SSW,200,5.0,20.0,12,0.00,,,-99.99,Weather View 32 v60,2013-06-22 00:40:00,
2013-06-21 19:50:00,87.7,72.0,28.90,SSE,161,5.0,20.0,60,0.00,,,-99.99,Weather View 32 v60,2013-06-22 00:50:00,
2013-06-21 19:59:00,87.3,72.6,28.90,SSE,164,5.0,18.0,62,0.00,,,-99.99,Weather View 32 v60,2013-06-22 00:59:00,
2013-06-21 20:05:00,87.2,72.5,28.90,SSE,158,3.0,14.0,62,0.00,,,-99.99,Weather View 32 v60,2013-06-22 01:05:00,
2013-06-21 20:10:00,87.0,72.3,28.90,SSW,196,2.0,14.0,62,0.00,,,-99.99,Weather View 32 v60,2013-06-22 01:10:00,
2013-06-21 20:20:00,86.5,72.3,28.89,SE,142,2.0,13.0,63,0.00,,,-99.99,Weather View 32 v60,2013-06-22 01:20:00,
2013-06-21 20:29:00,86.1,72.4,28.89,SSE,154,4.0,13.0,64,0.00,,,-99.99,Weather View 32 v60,2013-06-22 01:29:00,
2013-06-21 20:35:00,85.9,72.7,28.89,SSE,166,2.0,13.0,65,0.00,,,-99.99,Weather View 32 v60,2013-06-22 01:35:00,
2013-06-21 20:45:00,85.4,72.7,28.90,South,170,1.0,12.0,66,0.00,,,-99.99,Weather View 32 v60,2013-06-22 01:45:00,
2013-06-21 20:55:00,85.1,72.9,28.90,SSW,196,5.0,12.0,67,0.00,,,-99.99,Weather View 32 v60,2013-06-22 01:55:00,
2013-06-21 21:05:00,84.8,72.6,28.90,South,190,6.0,12.0,67,0.00,,,-99.99,Weather View 32 v60,2013-06-22 02:05:00,
2013-06-21 21:10:00,84.6,72.4,28.90,South,186,7.0,12.0,67,0.00,,,-99.99,Weather View 32 v60,2013-06-22 02:10:00,
2013-06-21 21:15:00,84.5,72.3,28.90,SSW,194,9.0,12.0,67,0.00,,,-99.99,Weather View 32 v60,2013-06-22 02:15:00,
2013-06-21 21:25:00,84.4,72.2,28.90,SSW,199,9.0,12.0,67,0.00,,,-99.99,Weather View 32 v60,2013-06-22 02:25:00,
2013-06-21 21:35:00,84.3,72.1,28.91,SSW,198,8.0,13.0,67,0.00,,,-99.99,Weather View 32 v60,2013-06-22 02:35:00,
2013-06-21 21:45:00,84.0,71.8,28.91,SSW,202,11.0,14.0,67,0.00,,,-99.99,Weather View 32 v60,2013-06-22 02:45:00,
2013-06-21 21:54:00,83.8,71.6,28.91,SSW,192,6.0,14.0,67,0.00,,,-99.99,Weather View 32 v60,2013-06-22 02:54:00,
2013-06-21 22:00:00,83.7,16.0,28.92,SSW,203,11.0,14.0,8,0.00,,,-99.99,Weather View 32 v60,2013-06-22 03:00:00,
2013-06-21 22:09:00,83.6,71.4,28.92,SSW,193,11.0,14.0,67,0.00,,,-99.99,Weather View 32 v60,2013-06-22 03:09:00,
2013-06-21 22:15:00,83.6,71.4,28.92,SSW,212,9.0,14.0,67,0.00,,,-99.99,Weather View 32 v60,2013-06-22 03:15:00,
2013-06-21 22:25:00,83.5,70.9,28.93,South,189,7.0,14.0,66,0.00,,,-99.99,Weather View 32 v60,2013-06-22 03:25:00,
2013-06-21 22:34:00,83.5,70.9,28.92,SSW,205,9.0,14.0,66,0.00,,,-99.99,Weather View 32 v60,2013-06-22 03:34:00,
2013-06-21 22:40:00,83.5,70.9,28.93,South,171,3.0,14.0,66,0.00,,,-99.99,Weather View 32 v60,2013-06-22 03:40:00,
2013-06-21 22:50:00,83.3,70.7,28.93,SSW,199,7.0,14.0,66,0.00,,,-99.99,Weather View 32 v60,2013-06-22 03:50:00,
2013-06-21 23:00:00,83.0,70.4,28.92,South,190,3.0,13.0,66,0.00,,,-99.99,Weather View 32 v60,2013-06-22 04:00:00,
2013-06-21 23:05:00,82.7,70.6,28.92,South,169,1.0,13.0,67,0.00,,,-99.99,Weather View 32 v60,2013-06-22 04:05:00,
2013-06-21 23:09:00,82.7,70.6,28.92,South,169,1.0,13.0,67,0.00,,,-99.99,Weather View 32 v60,2013-06-22 04:09:00,
2013-06-21 23:10:00,82.4,-27.6,28.92,South,190,5.0,13.0,1,0.00,,,-99.99,Weather View 32 v60,2013-06-22 04:10:00,
2013-06-21 23:20:00,82.0,70.3,28.92,South,186,3.0,13.0,68,0.00,,,-99.99,Weather View 32 v60,2013-06-22 04:20:00,
2013-06-21 23:25:00,81.7,-0.7,28.91,South,171,3.0,13.0,4,0.00,,,-99.99,Weather View 32 v60,2013-06-22 04:25:00,
2013-06-21 23:30:00,81.4,70.2,28.91,SSE,164,4.0,13.0,69,0.00,,,-99.99,Weather View 32 v60,2013-06-22 04:30:00,
2013-06-21 23:35:00,81.3,70.1,28.91,SSE,165,7.0,13.0,69,0.00,,,-99.99,Weather View 32 v60,2013-06-22 04:35:00,
2013-06-21 23:44:00,81.2,-28.4,28.91,South,181,8.0,13.0,1,0.00,,,-99.99,Weather View 32 v60,2013-06-22 04:44:00,
2013-06-21 23:50:00,81.2,70.0,28.90,SSE,153,10.0,13.0,69,0.00,,,-99.99,Weather View 32 v60,2013-06-22 04:50:00,